CW8398 Weather Reports


Display with metric or nautical units.
time (UTC)temp
F
wind
direction
speed
MPH
gust
MPH
rain 1hr
in
rain 24hr
in
rain mn
in
humidity
%
barometer
mb
20260906220815 53 155 0.0 2.0 0.00 0.00 0.00 93 1014.3
20260906220302 53 155 1.0 2.0 0.00 0.00 0.00 93 1014.3
20260906215306 53 155 1.0 2.0 0.00 0.00 0.00 92 1014.3
20260906214802 53 155 1.0 2.0 0.00 0.00 0.00 92 1014.3
20260906214302 53 155 1.0 2.0 0.00 0.00 0.00 92 1014.3
20260906213802 53 155 1.0 2.0 0.00 0.00 0.00 92 1014.3
20260906213301 53 155 1.0 2.0 0.00 0.00 0.00 92 1014.3
20260906212802 53 155 1.0 2.0 0.00 0.00 0.00 92 1014.3
20260906212306 53 155 1.0 2.0 0.00 0.00 0.00 92 1014.3
20260906211802 53 155 1.0 2.0 0.00 0.00 0.00 92 1014.1
20260906211302 53 155 1.0 2.0 0.00 0.00 0.00 91 1014.1
20260906210302 53 164 1.0 2.0 0.00 0.00 0.00 91 1013.9
20260906205802 53 164 1.0 2.0 0.00 0.00 0.00 91 1013.9
20260906205306 53 164 1.0 2.0 0.00 0.00 0.00 91 1013.9
20260906204802 53 165 1.0 2.0 0.00 0.00 0.00 90 1013.9
20260906204302 53 158 1.0 2.0 0.00 0.00 0.00 89 1013.9
20260906203802 54 13 0.0 0.0 0.00 0.00 0.00 88 1013.8
20260906203302 54 13 0.0 0.0 0.00 0.00 0.00 88 1013.8
20260906202802 54 13 0.0 0.0 0.00 0.00 0.00 88 1013.8
20260906201801 54 13 0.0 0.0 0.00 0.00 0.00 88 1013.9
20260906200802 55 13 0.0 0.0 0.00 0.00 0.00 88 1013.6
20260906200302 55 13 0.0 0.0 0.00 0.00 0.00 88 1013.6
20260906195802 55 13 0.0 0.0 0.00 0.00 0.00 88 1013.6
20260906195306 56 13 0.0 0.0 0.00 0.00 0.00 88 1013.6
20260906194802 56 13 0.0 0.0 0.00 0.00 0.00 88 1013.6
20260906194302 56 13 0.0 0.0 0.00 0.00 0.00 88 1013.6
20260906193302 56 13 0.0 0.0 0.00 0.00 0.00 87 1013.6
20260906192802 57 13 0.0 0.0 0.00 0.00 0.00 87 1013.6
20260906192302 57 13 0.0 0.0 0.00 0.00 0.00 87 1013.6
20260906191802 57 13 0.0 0.0 0.00 0.00 0.00 87 1013.6
20260906191302 57 13 0.0 0.0 0.00 0.00 0.00 87 1012.9
20260906190302 58 13 0.0 0.0 0.00 0.00 0.00 88 1012.9
20260906185305 58 13 0.0 0.0 0.00 0.00 0.00 87 1012.9
20260906184802 58 13 0.0 0.0 0.00 0.00 0.00 87 1012.9
20260906184302 58 13 0.0 0.0 0.00 0.00 0.00 87 1012.9
20260906183303 59 13 0.0 1.0 0.00 0.00 0.00 87 1012.9
20260906182801 59 31 0.0 1.0 0.00 0.00 0.00 87 1012.9
20260906182306 59 32 1.0 3.0 0.00 0.00 0.00 87 1012.9
20260906181802 59 20 1.0 3.0 0.00 0.00 0.00 86 1012.9
20260906181302 60 5 0.0 2.0 0.00 0.00 0.00 85 1012.9
20260906180302 60 20 0.0 0.0 0.00 0.00 0.00 84 1012.9
20260906175802 60 20 0.0 0.0 0.00 0.00 0.00 84 1012.9
20260906175306 60 20 0.0 0.0 0.00 0.00 0.00 84 1012.9
20260906174801 61 20 0.0 1.0 0.00 0.00 0.00 83 1012.9
20260906174302 61 20 0.0 2.0 0.00 0.00 0.00 83 1012.9
20260906173302 61 5 0.0 0.0 0.00 0.00 0.00 81 1012.9
20260906172305 62 5 0.0 0.0 0.00 0.00 0.00 82 1012.2
20260906171302 62 17 1.0 3.0 0.00 0.00 0.00 81 1012.2
20260906170801 62 41 1.0 3.0 0.00 0.00 0.00 81 1012.2
20260906170302 63 31 2.0 3.0 0.00 0.00 0.00 80 1012.2
20260906165802 63 24 2.0 3.0 0.00 0.00 0.00 80 1012.2
20260906165306 64 42 1.0 5.0 0.00 0.00 0.00 79 1012.2
20260906164802 64 31 1.0 6.0 0.00 0.00 0.00 78 1012.2
20260906164303 65 45 1.0 5.0 0.00 0.00 0.00 77 1012.2
20260906163802 66 51 3.0 5.0 0.00 0.00 0.00 75 1012.2
20260906163302 67 27 3.0 7.0 0.00 0.00 0.00 72 1012.2
20260906160802 68 243 3.0 6.0 0.00 0.00 0.00 56 1012.2
20260906155802 69 259 2.0 8.0 0.00 0.00 0.00 55 1012.2
20260906155302 69 229 1.0 5.0 0.00 0.00 0.00 54 1012.0
20260906154804 69 222 1.0 3.0 0.00 0.00 0.00 54 1012.0
20260906154302 69 291 1.0 3.0 0.00 0.00 0.00 54 1012.0
20260906153302 70 208 0.0 1.0 0.00 0.00 0.00 53 1011.7
20260906151303 71 234 2.0 3.0 0.00 0.00 0.00 51 1011.7
20260906150802 71 206 3.0 5.0 0.00 0.00 0.00 51 1011.7
20260906150302 71 275 3.0 6.0 0.00 0.00 0.00 51 1011.7
20260906145802 71 349 1.0 6.0 0.00 0.00 0.00 53 1011.7
20260906145306 71 31 1.0 2.0 0.00 0.00 0.00 53 1011.7
20260906144302 72 30 2.0 5.0 0.00 0.00 0.00 52 1011.7
20260906143802 72 0 1.0 3.0 0.00 0.00 0.00 53 1011.7
20260906142802 71 275 2.0 6.0 0.00 0.00 0.00 54 1011.7
20260906142306 71 324 0.0 1.0 0.00 0.00 0.00 55 1011.7
20260906141802 71 354 1.0 3.0 0.00 0.00 0.00 55 1011.7
20260906135305 70 277 3.0 7.0 0.00 0.00 0.00 55 1011.4
20260906134802 70 257 4.0 8.0 0.00 0.00 0.00 55 1011.4
20260906134302 70 245 2.0 6.0 0.00 0.00 0.00 58 1011.4
20260906133802 70 246 0.0 3.0 0.00 0.00 0.00 56 1011.4
20260906132802 70 256 2.0 6.0 0.00 0.00 0.00 56 1011.4
20260906132306 70 213 2.0 6.0 0.00 0.00 0.00 55 1011.4
20260906131802 70 346 1.0 5.0 0.00 0.00 0.00 56 1011.4
20260906131303 70 291 2.0 7.0 0.00 0.00 0.00 56 1011.4
20260906130802 70 263 3.0 8.0 0.00 0.00 0.00 55 1011.4
20260906130302 70 261 3.0 10.0 0.00 0.00 0.00 55 1011.4
20260906125803 70 275 2.0 5.0 0.00 0.00 0.00 55 1011.4
20260906125305 69 331 3.0 8.0 0.00 0.00 0.00 54 1011.4
20260906124802 69 295 3.0 9.0 0.00 0.00 0.00 55 1011.4
20260906123802 69 235 3.0 9.0 0.00 0.00 0.00 56 1011.4
20260906123302 69 259 3.0 9.0 0.00 0.00 0.00 57 1011.4
20260906122803 68 281 1.0 7.0 0.00 0.00 0.00 59 1011.4
20260906122305 68 261 3.0 8.0 0.00 0.00 0.00 59 1011.4
20260906121302 68 339 2.0 5.0 0.00 0.00 0.00 58 1011.4
20260906120802 68 259 1.0 5.0 0.00 0.00 0.00 60 1011.4
20260906120303 69 293 0.0 3.0 0.00 0.00 0.00 60 1011.4
20260906115802 69 256 1.0 3.0 0.00 0.00 0.00 59 1011.4
20260906114303 69 343 2.0 3.0 0.00 0.00 0.00 59 1010.7
20260906113802 69 297 2.0 3.0 0.00 0.00 0.00 60 1010.7
20260906113302 69 301 1.0 7.0 0.00 0.00 0.00 61 1010.7
20260906112802 69 273 2.0 7.0 0.00 0.00 0.00 60 1010.7
20260906112306 69 308 2.0 7.0 0.00 0.00 0.00 60 1010.7
20260906111302 68 354 2.0 6.0 0.00 0.00 0.00 61 1010.7
20260906110802 68 231 2.0 5.0 0.00 0.00 0.00 63 1010.7
20260906110302 68 225 2.0 5.0 0.00 0.00 0.00 63 1010.7
20260906105802 67 34 1.0 8.0 0.00 0.00 0.00 63 1010.7
20260906105305 67 359 3.0 6.0 0.00 0.00 0.00 63 1010.7
20260906104803 67 34 2.0 3.0 0.00 0.00 0.00 64 1010.7
20260906104303 67 272 0.0 3.0 0.00 0.00 0.00 66 1010.7
20260906103804 67 289 3.0 6.0 0.00 0.00 0.00 65 1010.7
20260906103302 66 213 2.0 7.0 0.00 0.00 0.00 65 1010.7
20260906102802 66 286 2.0 8.0 0.00 0.00 0.00 65 1010.7
20260906102306 66 1 2.0 7.0 0.00 0.00 0.00 67 1010.7
20260906101802 65 77 1.0 3.0 0.00 0.00 0.00 68 1010.7
20260906101302 65 352 1.0 3.0 0.00 0.00 0.00 69 1010.7
20260906100303 64 90 2.0 7.0 0.00 0.00 0.00 70 1010.7
20260906095802 63 268 3.0 8.0 0.00 0.00 0.00 70 1010.7
20260906095305 63 202 2.0 6.0 0.00 0.00 0.00 71 1010.7
20260906094802 63 6 2.0 5.0 0.00 0.00 0.00 71 1010.7
20260906094302 62 280 2.0 7.0 0.00 0.00 0.00 71 1010.6
20260906093305 62 291 3.0 8.0 0.00 0.00 0.00 73 1010.2
20260906092802 62 230 1.0 5.0 0.00 0.00 0.00 73 1010.2
20260906092305 62 316 3.0 8.0 0.00 0.00 0.00 74 1010.2
20260906091802 61 347 4.0 8.0 0.00 0.00 0.00 74 1010.2
20260906090802 61 270 2.0 6.0 0.00 0.00 0.00 77 1010.2
20260906090302 61 215 1.0 8.0 0.00 0.00 0.00 78 1010.2
20260906084802 60 279 3.0 8.0 0.00 0.00 0.00 79 1010.0
20260906083802 60 291 2.0 8.0 0.00 0.00 0.00 79 1008.5
20260906083302 59 304 3.0 8.0 0.00 0.00 0.00 79 1008.5
20260906082803 59 264 3.0 8.0 0.00 0.00 0.00 81 1008.5
20260906082305 59 267 2.0 7.0 0.00 0.00 0.00 81 1008.5
20260906081802 59 320 2.0 7.0 0.00 0.00 0.00 81 1008.5
20260906081302 59 246 4.0 7.0 0.00 0.00 0.00 81 1008.5
20260906080802 59 274 2.0 6.0 0.00 0.00 0.00 82 1008.5
20260906080302 58 255 2.0 9.0 0.00 0.00 0.00 82 1008.5
20260906075802 58 316 2.0 6.0 0.00 0.00 0.00 82 1008.5
20260906075306 58 248 3.0 9.0 0.00 0.00 0.00 82 1008.5
20260906074804 58 263 2.0 9.0 0.00 0.00 0.00 82 1008.5
20260906073802 58 306 2.0 9.0 0.00 0.00 0.00 83 1008.5
20260906073303 58 292 3.0 12.0 0.00 0.00 0.00 83 1008.5
20260906072802 57 226 3.0 9.0 0.00 0.00 0.00 84 1008.5
20260906072305 57 281 4.0 10.0 0.00 0.00 0.00 85 1008.5
20260906071303 57 235 4.0 9.0 0.00 0.00 0.00 86 1008.5
20260906070802 56 265 2.0 9.0 0.00 0.00 0.00 87 1008.5
20260906070302 56 92 2.0 8.0 0.00 0.00 0.00 89 1008.5
20260906065802 56 276 2.0 5.0 0.00 0.00 0.00 90 1008.5
20260906065305 55 308 2.0 7.0 0.00 0.00 0.00 91 1008.5
20260906064803 55 271 1.0 7.0 0.00 0.00 0.00 91 1008.5
20260906064303 55 74 1.0 3.0 0.00 0.00 0.00 92 1008.5
20260906063803 55 250 3.0 7.0 0.00 0.00 0.00 92 1008.5
20260906063302 55 254 2.0 7.0 0.00 0.00 0.00 92 1008.5
20260906062305 54 198 0.0 3.0 0.00 0.00 0.00 93 1008.5
20260906061802 54 264 2.0 3.0 0.00 0.00 0.00 93 1008.5
20260906061302 54 252 1.0 5.0 0.00 0.00 0.00 93 1008.5
20260906060803 54 256 1.0 3.0 0.00 0.00 0.00 94 1008.5
20260906060303 54 313 2.0 6.0 0.00 0.00 0.00 94 1008.5
20260906055803 53 255 2.0 6.0 0.00 0.00 0.00 94 1008.5
20260906055306 53 318 1.0 3.0 0.00 0.00 0.00 94 1008.3
20260906054802 53 32 1.0 3.0 0.00 0.00 0.00 94 1008.3
20260906054302 53 281 2.0 7.0 0.00 0.00 0.00 94 1008.3
20260906053803 53 244 2.0 3.0 0.00 0.00 0.00 93 1008.3
20260906053302 53 234 2.0 7.0 0.00 0.00 0.00 93 1008.3
20260906052803 53 238 1.0 3.0 0.00 0.00 0.00 93 1008.3
20260906052305 52 205 2.0 6.0 0.00 0.00 0.00 93 1007.3
20260906051803 52 257 1.0 3.0 0.00 0.00 0.00 93 1007.3
20260906051302 52 255 1.0 3.0 0.00 0.00 0.00 93 1007.3
20260906050302 52 209 1.0 3.0 0.00 0.00 0.00 93 1007.3
20260906045803 52 221 1.0 3.0 0.00 0.00 0.00 93 1007.3
20260906045305 52 266 2.0 3.0 0.00 0.00 0.00 93 1007.3
20260906044802 52 276 1.0 6.0 0.00 0.00 0.00 93 1007.3
20260906044303 52 274 1.0 3.0 0.00 0.00 0.00 93 1007.3
20260906043303 52 256 1.0 5.0 0.00 0.00 0.00 92 1007.3
20260906042803 52 237 2.0 3.0 0.00 0.00 0.00 92 1007.3
20260906042306 52 218 2.0 7.0 0.00 0.00 0.00 92 1007.3
20260906041803 52 253 1.0 3.0 0.00 0.00 0.00 92 1007.3
20260906041303 52 202 1.0 3.0 0.00 0.00 0.00 92 1007.3
20260906040803 53 238 1.0 2.0 0.00 0.00 0.00 92 1007.3
20260906040302 53 180 0.0 3.0 0.00 0.00 0.00 92 1007.3
20260906035802 53 262 0.0 3.0 0.00 0.00 0.00 92 1006.3
20260906035305 53 254 1.0 3.0 0.00 0.00 0.00 92 1006.3
20260906034302 53 298 1.0 3.0 0.00 0.00 0.00 91 1006.3
20260906033802 53 304 1.0 3.0 0.00 0.00 0.00 91 1006.3
20260906032802 53 285 2.0 6.0 0.00 0.00 0.00 91 1006.3
20260906032305 53 290 1.0 6.0 0.00 0.00 0.00 91 1006.3
20260906031803 53 245 1.0 3.0 0.00 0.00 0.00 91 1006.3
20260906031302 53 277 1.0 3.0 0.00 0.00 0.00 91 1006.3
20260906030803 53 219 1.0 3.0 0.00 0.00 0.00 91 1006.3
20260906030302 53 194 2.0 3.0 0.00 0.00 0.00 90 1006.3
20260906025803 53 306 0.0 3.0 0.00 0.00 0.00 90 1006.3
20260906025306 53 248 1.0 3.0 0.00 0.00 0.00 90 1006.3
20260906024302 53 279 1.0 3.0 0.00 0.00 0.00 90 1006.3
20260906023803 53 253 1.0 3.0 0.00 0.00 0.00 89 1006.3
20260906023303 53 268 1.0 3.0 0.00 0.00 0.00 89 1006.2
20260906022803 53 315 1.0 3.0 0.00 0.00 0.00 89 1006.2
20260906022306 53 342 0.0 2.0 0.00 0.00 0.00 89 1004.2
20260906021802 54 342 1.0 3.0 0.00 0.00 0.00 89 1004.2
20260906021303 54 359 1.0 3.0 0.00 0.00 0.00 89 1004.2
20260906020803 54 343 1.0 5.0 0.00 0.00 0.00 89 1004.2
20260906015803 54 328 0.0 3.0 0.00 0.00 0.00 89 1004.2
20260906015305 54 2 1.0 3.0 0.00 0.00 0.00 89 1004.2
20260906014802 54 322 2.0 3.0 0.00 0.00 0.00 89 1004.2
20260906014302 54 335 1.0 7.0 0.00 0.00 0.00 89 1004.2
20260906013803 54 12 2.0 3.0 0.00 0.00 0.00 89 1004.2
20260906013303 54 324 2.0 3.0 0.00 0.00 0.00 89 1004.2
20260906012803 54 338 1.0 5.0 0.00 0.00 0.00 89 1004.2
20260906011303 54 301 2.0 3.0 0.00 0.00 0.00 89 1004.2
20260906010803 54 352 1.0 5.0 0.00 0.00 0.00 89 1004.2
20260906010302 54 336 2.0 5.0 0.00 0.00 0.00 89 1004.2
20260906005306 54 341 2.0 5.0 0.00 0.00 0.00 89 1004.2
20260906004803 54 325 2.0 7.0 0.00 0.00 0.00 89 1004.2
20260906003803 54 350 1.0 3.0 0.00 0.00 0.00 89 1004.2
20260906003302 54 344 2.0 3.0 0.00 0.00 0.00 89 1004.2
20260906001802 54 352 2.0 5.0 0.00 0.00 0.00 88 1004.2
20260906001303 54 9 2.0 6.0 0.00 0.00 0.00 88 1004.2
20260906000803 54 335 1.0 3.0 0.00 0.00 0.00 88 1004.2
20260905235803 55 351 2.0 6.0 0.00 0.00 0.00 88 1004.2
20260905235306 55 26 1.0 3.0 0.00 0.00 0.00 88 1004.2
20260905234803 55 346 2.0 3.0 0.00 0.00 0.00 88 1004.2
20260905233803 55 16 2.0 6.0 0.00 0.00 0.00 88 1002.8
20260905231303 55 317 2.0 7.0 0.00 0.00 0.00 88 1002.8
20260905230803 55 348 2.0 8.0 0.00 0.00 0.00 88 1002.8
20260905230303 55 314 2.0 10.0 0.00 0.00 0.00 88 1002.8
20260905225802 55 350 2.0 9.0 0.00 0.00 0.00 88 1002.8
20260905225305 55 343 2.0 8.0 0.00 0.00 0.00 88 1002.8
20260905224802 55 336 1.0 5.0 0.00 0.00 0.00 88 1002.8
20260905224302 55 356 3.0 5.0 0.00 0.01 0.00 89 1002.8
20260905223803 55 8 2.0 7.0 0.00 0.01 0.00 89 1002.8
20260905223303 55 342 3.0 6.0 0.00 0.01 0.00 89 1002.8
20260905222803 55 358 3.0 3.0 0.00 0.01 0.00 89 1002.8
20260905222306 55 347 2.0 6.0 0.00 0.01 0.00 88 1002.8
20260905221803 55 3 2.0 5.0 0.00 0.02 0.00 88 1002.8
20260905221303 55 358 2.0 5.0 0.00 0.02 0.00 89 1002.8